This is the latest recevied weather packets stored in our database for station/object N7CEE-2. If no packets are shown the sender has not sent any weather packets the latest 10 day(s).
| Time | Temp. | Humidity | Pressure | Rain* | Wind** | Luminosity | Snow |
|---|---|---|---|---|---|---|---|
| 1777683035 | 30.56° C | 22% | 1010.9 hPa | 0 mm | - | 144 W/m² | - |
| 1777682731 | 30.56° C | 22% | 1010.8 hPa | 0 mm | - | 158 W/m² | - |
| 1777682428 | 30.56° C | 22% | 1010.8 hPa | 0 mm | - | 175 W/m² | - |
| 1777682126 | 30.56° C | 21% | 1010.8 hPa | 0 mm | - | 193 W/m² | - |
| 1777681822 | 30.56° C | 21% | 1010.9 hPa | 0 mm | - | 209 W/m² | - |
| 1777681519 | 31.11° C | 21% | 1010.8 hPa | 0 mm | - | 228 W/m² | - |
| 1777681216 | 30.56° C | 22% | 1010.7 hPa | 0 mm | - | 246 W/m² | - |
| 1777680914 | 30.56° C | 23% | 1010.8 hPa | 0 mm | - | 271 W/m² | - |
| 1777680611 | 30.56° C | 22% | 1010.9 hPa | 0 mm | - | 287 W/m² | - |
| 1777680309 | 30.56° C | 20% | 1010.9 hPa | 0 mm | - | 308 W/m² | - |
| 1777680006 | 30.56° C | 22% | 1010.8 hPa | 0 mm | - | 330 W/m² | - |
| 1777679702 | 31.11° C | 22% | 1011.1 hPa | 0 mm | - | 352 W/m² | - |
| 1777679396 | 30.56° C | 21% | 1010.9 hPa | 0 mm | - | 368 W/m² | - |
| 1777679093 | 30.56° C | 21% | 1011.1 hPa | 0 mm | - | 392 W/m² | - |
| 1777678792 | 31.11° C | 21% | 1011 hPa | 0 mm | - | 413 W/m² | - |
| 1777678489 | 30.56° C | 20% | 1011.1 hPa | 0 mm | - | 436 W/m² | - |
| 1777678185 | 30.56° C | 21% | 1011.2 hPa | 0 mm | - | 456 W/m² | - |
| 1777677882 | 30.56° C | 21% | 1011.1 hPa | 0 mm | - | 477 W/m² | - |
| 1777677579 | 31.11° C | 21% | 1011.1 hPa | 0 mm | - | 500 W/m² | - |
| 1777677278 | 30° C | 23% | 1011 hPa | 0 mm | - | 516 W/m² | - |
| 1777676975 | 30.56° C | 23% | 1011.1 hPa | 0 mm | - | 538 W/m² | - |
| 1777676674 | 30° C | 24% | 1011.2 hPa | 0 mm | - | 557 W/m² | - |
| 1777676371 | 30.56° C | 23% | 1011.2 hPa | 0 mm | - | 575 W/m² | - |
| 1777676069 | 30.56° C | 24% | 1011.3 hPa | 0 mm | - | 592 W/m² | - |
| 1777675764 | 30.56° C | 24% | 1011.2 hPa | 0 mm | - | 613 W/m² | - |
* Rain latest hour (hover to see other rain measurements)
** Current wind speed in m/s (hover to see current wind gust speed)